Location: Eleveld
(52.9567°N, 6.5810°E)
Time: 05:56:52
(UTC+00:00)

Daily predictions for brighter satellites

Satellite Brightness Start Highest point End
(mag) Time Altitude Azimuth Time Altitude Azimuth Time Altitude Azimuth
Cosmos 1758 Rocket 4.4 00:03:05 10° NNW 00:06:37 39° WNW 00:06:37 39° WNW
Cosmos 1726 Rocket 4.5 00:07:11 36° E 00:07:12 36° E 00:11:04 10° NNE
Cosmos 1331 Rocket 4.0 00:06:53 61° WSW 00:07:41 74° WNW 00:12:58 10° NNE
ATLAS 2AS CENTAUR R/B 2.6 00:09:45 40° SW 00:12:30 84° NW 00:19:21 10° NE
DELTA 2 DEB (DPAF) 4.4 00:09:10 10° NNE 00:11:57 48° NE 00:11:57 48° NE
IDEFIX/ARIANE 42P 4.3 00:11:03 10° NE 00:14:59 21° E 00:16:41 18° ESE
Meteor 1-20 Rocket 4.5 00:12:18 10° NNW 00:17:33 49° W 00:18:03 47° WSW
Cosmos 1900 4.2 00:17:30 69° WSW 00:18:05 81° NW 00:23:03 10° NE
Meteor 1-5 Rocket 4.0 00:14:39 10° NNW 00:20:03 82° W 00:20:58 63° S
Cosmos 1953 Rocket 3.9 00:17:22 10° N 00:21:47 57° ENE 00:22:18 53° ESE
Cosmos 1980 Rocket 2.3 00:18:26 10° NW 00:23:58 53° WSW 00:24:19 52° SW
Cosmos 1110 Rocket 4.4 00:23:00 44° WSW 00:24:13 55° WNW 00:29:27 10° NNE
USA 234 3.6 00:20:54 10° E 00:27:22 67° N 00:33:52 10° WNW
Cosmos 44 Rocket 4.4 00:29:47 32° ESE 00:29:58 32° ESE 00:34:31 10° ENE
Cosmos 1825 Rocket 3.5 00:28:13 10° NNW 00:32:19 70° WNW 00:32:19 70° WNW
COSMOS 2406 4.4 00:32:29 27° SE 00:33:54 30° ESE 00:38:51 10° NE
Meteor 2-10 4.1 00:29:32 10° NNW 00:35:00 73° W 00:36:02 58° SSW
Cosmos 2369 3.6 00:29:37 10° NW 00:35:20 76° WSW 00:36:38 54° S
Cosmos 1634 Rocket 4.4 00:35:56 37° SSE 00:38:10 55° E 00:44:11 10° NNE
CZ-4C R/B 4.1 00:38:12 10° N 00:40:24 36° NNW 00:40:24 36° NNW
Cosmos 2084 3.3 00:46:23 77° E 00:46:23 77° E 00:50:23 10° NE
Cosmos 1627 Rocket 4.4 00:40:08 10° NNW 00:46:25 79° W 00:48:29 45° S
Spot 1 4.1 00:42:46 10° NNE 00:46:51 60° ESE 00:47:07 58° ESE
Cosmos 2360 Rocket 3.3 00:45:33 10° NNW 00:50:59 44° NE 00:56:24 10° ESE
Cosmos 2333 Rocket 2.5 00:46:31 10° NNW 00:52:11 65° NE 00:57:05 14° SE
Cosmos-2242 3.2 00:52:12 53° ESE 00:52:38 56° E 00:56:45 10° NNE
USA 281 3.2 00:51:27 19° SE 00:56:19 82° ENE 01:02:56 10° NNW
Cosmos 1452 Rocket 4.3 00:58:56 33° W 01:00:35 43° NW 01:05:36 10° NNE
Cosmos 2082 Rocket 2.2 00:59:24 49° SSW 01:01:01 82° ESE 01:06:47 10° NNE
Cosmos 1833 Rocket 4.0 01:00:04 20° W 01:03:09 33° NW 01:08:13 10° NNE
Cosmos 2098 Rocket 4.3 01:03:15 37° WSW 01:04:46 45° WNW 01:10:08 10° N
Meteor 2-2 Rocket 4.4 01:02:52 40° SSE 01:04:52 66° E 01:10:28 10° NNE
Cosmos 2278 3.9 01:00:14 10° NNW 01:05:59 72° NE 01:11:11 13° SE
Cosmos 2322 Rocket 2.8 01:00:51 10° NNW 01:06:25 56° NE 01:11:58 10° SE
Cosmos 1486 Rocket 4.0 01:01:33 10° NNW 01:06:48 79° ENE 01:09:36 28° SSE
Cosmos 2279 Rocket 4.3 01:03:59 33° SSE 01:06:50 63° E 01:13:00 10° NNE
NPP 4.5 01:02:24 10° NNE 01:07:32 42° E 01:09:57 27° SSE
Resurs 1-4 Rocket 4.3 01:04:20 10° NE 01:07:59 18° E 01:11:36 10° SE
Cosmos 1867 4.0 01:06:15 32° WSW 01:08:35 56° NW 01:13:59 10° NE
Cosmos 2221 4.1 01:07:40 21° SE 01:09:14 27° E 01:12:45 10° NNE
NOSS 3-3 (A) 4.4 01:14:12 34° SSE 01:15:47 42° ESE 01:21:34 10° NE
ACS3 Solar Sail 1.7 01:10:07 10° N 01:16:10 78° WNW 01:18:33 39° SSW
Cosmos 1777 Rocket 4.0 01:12:08 10° NNW 01:17:27 83° ENE 01:20:41 24° SSE
Cosmos 1606 Rocket 4.3 01:18:01 36° W 01:18:36 38° WNW 01:22:44 10° N
Cosmos 2219 Rocket 3.3 01:14:55 10° NNW 01:20:19 45° NE 01:25:44 10° ESE
SL-16 R/B 2.1 01:15:51 10° NNW 01:21:32 77° WSW 01:24:53 26° SSE
Cosmos 1437 Rocket 4.3 01:22:27 20° WNW 01:22:27 20° WNW 01:25:01 10° NNW
H-2A R/B 4.4 01:19:18 10° NE 01:22:37 17° E 01:25:58 10° SE
GP-B 3.3 01:18:36 10° N 01:22:52 52° W 01:23:25 49° WSW
CZ-4C R/B 1.7 01:22:06 50° SW 01:23:19 89° SE 01:29:03 10° NE
Cosmos 1271 Rocket 3.9 01:27:38 25° SE 01:28:35 29° E 01:31:39 10° NNE
Meteor 1-14 Rocket 4.3 01:22:58 10° NNW 01:28:47 77° ENE 01:32:37 21° SSE
ATLAS 3B R/B 3.8 01:22:44 10° WNW 01:28:51 26° WSW 01:29:24 26° WSW
SL-4 R/B 3.4 01:31:34 23° SE 01:31:34 23° SE 01:33:13 10° SE
CZ-2C R/B 4.5 01:30:23 15° W 01:30:45 15° W 01:33:51 10° NW
USA 267 4.2 01:25:22 10° ENE 01:31:12 33° SE 01:34:01 24° S
NOSS 3-3 (C) 4.3 01:30:27 32° S 01:32:30 46° ESE 01:38:27 10° NE
Cosmos 2058 Rocket 3.1 01:32:04 50° SW 01:33:04 69° WNW 01:37:29 10° N
Cosmos 2266 Rocket 4.1 01:28:12 10° N 01:34:22 74° ENE 01:39:09 17° SSE
Cosmos 1470 2.3 01:32:30 10° N 01:35:52 76° ENE 01:36:16 64° SE
Gbstr 26 Del rocket 3.4 01:37:23 36° SE 01:37:23 36° SE 01:39:51 10° ESE
Okean 1 4.3 01:37:01 27° WNW 01:37:01 27° WNW 01:40:05 10° N
KORONAS-FOTON 3.2 01:38:28 79° SW 01:38:37 85° W 01:42:00 10° N
Cosmos 909 Rocket 4.1 01:37:59 31° SW 01:41:10 76° NW 01:47:42 10° NE
Cosmos 1536 3.3 01:43:36 10° NNW 01:46:48 36° W 01:46:48 36° W
Cosmos 2333 4.3 01:41:19 10° NNW 01:47:01 80° ENE 01:52:43 10° SE
DMSP B5D2-2 4.3 01:45:23 10° SSE 01:50:27 71° ENE 01:55:39 10° NNW
NOSS 3-4 (A) 3.8 01:45:14 10° NW 01:51:43 80° NE 01:59:25 10° SE
Cosmos 1812 Rocket 4.0 01:49:34 26° SSE 01:51:46 56° E 01:56:02 10° NNE
Meteor 2-6 Rocket 4.2 01:49:06 31° SSW 01:52:05 85° WNW 01:58:03 10° NNE
NOSS 3-4 (C) 3.9 01:45:46 10° NW 01:52:16 80° NE 01:59:59 10° SE
IDEFIX/ARIANE 42P 2.6 01:49:47 10° NNE 01:54:57 71° WNW 01:57:22 32° SW
Envisat 3.8 01:52:37 10° NNE 01:57:30 45° E 02:01:23 16° SSE
Aureole 1 Rocket 3.6 01:54:31 10° NNW 01:58:27 59° ENE 02:03:21 10° SE
Cosmos 2084 Rocket 3.2 01:57:59 10° NW 02:02:11 72° SW 02:06:24 10° SE
Cosmos 1707 3.5 02:03:05 25° WNW 02:03:05 25° WNW 02:05:21 10° NNW
ATLAS 2AS CENTAUR R/B 3.8 01:57:47 10° W 02:04:13 40° NNW 02:10:34 10° NE
Iridium 4 Rocket 3.6 02:03:00 18° SSE 02:06:27 68° E 02:11:34 10° N
MOZ.5/SAFIR/RUBIN 5/SL-8 3.7 02:05:32 23° S 02:08:21 66° WSW 02:13:00 10° NNW
H-2A R/B 2.3 02:06:26 14° SSE 02:09:31 69° ENE 02:13:06 10° N
Cosmos 1975 2.7 02:06:01 10° NNW 02:09:35 53° W 02:10:35 39° SSW
Cosmos 990 Rocket 3.9 02:05:00 10° NNW 02:10:07 71° WSW 02:15:13 10° SSE
USA 234 3.2 02:03:49 10° ESE 02:10:23 78° SSW 02:16:58 10° WNW
ADEOS II 3.3 02:06:08 10° NNE 02:11:00 37° E 02:15:49 10° SSE
Cosmos 44 Rocket 3.7 02:08:21 26° WSW 02:11:09 62° NW 02:16:19 10° NE
ALOS 3.0 02:11:14 10° NNE 02:15:39 48° E 02:19:30 13° S
MSX 4.1 02:10:49 10° N 02:16:25 54° WNW 02:19:47 24° SW
Cosmos 1763 Rocket 3.6 02:13:17 23° SSW 02:16:35 74° ESE 02:21:54 10° NNE
Cosmos 1238 Rocket 3.7 02:15:05 16° SSE 02:16:57 31° E 02:19:42 10° NNE
COSMOS 2406 3.5 02:14:30 25° SW 02:17:52 61° NW 02:23:35 10° NNE
COSMOS 2428 3.9 02:13:50 10° NNW 02:19:21 45° NE 02:24:48 10° ESE
CZ-2D R/B 2.6 02:14:31 10° NNE 02:19:42 56° ESE 02:24:33 12° S
SL-16 R/B 3.7 02:16:28 10° SE 02:22:21 45° ENE 02:28:16 10° N
ADEOS Rocket 3.6 02:15:08 10° NNE 02:22:38 77° WNW 02:28:49 18° SSW
Cosmos 1898 Rocket 3.9 02:23:03 10° NNW 02:28:12 64° ENE 02:33:20 10° SE
Spot 2 4.3 02:24:31 10° SSE 02:29:21 86° WSW 02:34:22 10° NNW
Cosmos 1354 Rocket 4.2 02:27:29 10° NW 02:32:34 49° WSW 02:37:36 10° S
Cosmos 1937 Rocket 4.3 02:27:35 10° NNW 02:32:44 54° ENE 02:37:47 10° SE
Cosmos 220 Rocket 4.3 02:32:09 25° WSW 02:34:10 46° WNW 02:38:05 10° NNE
FENGYUN 3A 4.1 02:29:28 10° N 02:34:41 49° WNW 02:38:14 20° SW
Cosmos 2360 Rocket 2.5 02:29:39 10° NW 02:35:01 44° WSW 02:40:22 10° S
Cosmos 1607 4.3 02:31:28 18° WSW 02:36:01 58° NW 02:42:15 10° NE
Cosmos 2333 Rocket 3.1 02:31:20 10° NW 02:36:04 28° WSW 02:38:59 18° SSW
Cosmos 1842 4.1 02:35:26 22° W 02:36:11 24° WNW 02:38:51 10° NNW
Alouette 2 Rocket 3.2 02:32:44 10° NNW 02:37:05 85° WSW 02:40:39 10° SSE
USA 305 1.5 02:38:24 39° NW 02:38:46 46° N 02:40:08 10° ENE
EP 1 4.1 02:36:37 10° NW 02:39:11 60° SW 02:41:53 10° SE
USA 281 4.1 02:38:17 18° SW 02:41:30 26° W 02:46:53 10° NW
Meteor 2-10 Rocket 4.0 02:37:27 10° N 02:42:31 62° ENE 02:47:43 10° SSE
H-2A R/B 4.2 02:41:15 10° NE 02:44:26 22° E 02:47:33 10° SE
Cosmos 540 Rocket 3.4 02:41:19 19° SSW 02:45:06 78° WNW 02:50:17 10° NNE
Cosmos 2082 Rocket 3.6 02:41:13 12° W 02:45:45 28° NW 02:50:40 10° NNE
Cosmos 2221 3.2 02:43:58 21° WSW 02:46:08 35° WNW 02:49:59 10° N
NPP 4.4 02:42:46 10° N 02:47:44 39° WNW 02:51:27 17° WSW
Resurs 1-4 Rocket 2.1 02:43:04 10° NNE 02:48:26 84° WNW 02:53:19 12° SSW
Cosmos 2322 Rocket 2.9 02:45:14 10° NW 02:50:12 33° WSW 02:55:10 10° SSW
Cosmos 468 Rocket 4.2 02:46:38 13° SSW 02:51:24 75° ESE 02:56:43 10° NNE
BREEZE-M DEB (TANK) 3.4 02:50:12 19° WSW 02:52:10 49° S 02:59:23 10° ESE
DNEPR-1 R/B 4.4 02:48:23 10° NW 02:53:29 51° SW 02:59:40 10° SSE
Cosmos 1766 Rocket 3.6 02:51:52 10° NNW 02:56:10 59° W 03:00:24 10° S
ACS3 Solar Sail 3.4 02:53:36 10° N 02:57:43 20° NW 03:01:52 10° W
Cosmos 1833 4.2 02:53:59 14° SSW 02:59:00 89° ESE 03:04:43 10° NNE
H-2A R/B 2.1 02:57:27 10° NNE 03:02:35 88° WNW 03:07:50 10° SSW
Cosmos 1271 Rocket 3.8 03:01:02 16° WSW 03:02:51 24° WNW 03:05:45 10° N
Cosmos 2219 Rocket 2.5 02:58:59 10° NW 03:04:16 42° WSW 03:09:33 10° S
Cosmos 2237 Rocket 3.6 02:58:53 10° NNW 03:04:22 44° NE 03:09:47 10° ESE
SL-16 R/B 3.7 03:01:27 10° WNW 03:04:42 16° W 03:06:38 13° WSW
CRYOSAT 2 4.3 03:00:06 10° S 03:04:59 78° W 03:09:55 10° N
RESURS DK-1 4.1 03:01:53 10° NNW 03:05:35 35° NE 03:09:15 10° ESE
Cosmos 44 4.3 03:00:19 10° NW 03:05:40 56° NE 03:10:56 10° ESE
Meteor 1-11 Rocket 4.5 03:00:41 10° NNW 03:05:59 35° W 03:11:09 10° SSW
SL-4 R/B 3.3 03:05:08 16° WSW 03:06:18 18° SW 03:08:53 10° S
NOSS 3-3 (A) 4.3 03:01:35 13° WSW 03:06:26 58° NNW 03:13:03 10° NE
Meteor 2-11 Rocket 4.4 03:00:44 10° NNW 03:06:54 73° W 03:13:00 10° S
SL-14 R/B 4.5 03:06:14 10° SSE 03:09:55 42° E 03:13:37 10° NNE
CZ-4C R/B 3.4 03:07:40 10° W 03:12:14 35° NNW 03:18:04 10° NE
USA 290 2.6 03:10:18 16° SW 03:12:38 46° WNW 03:15:43 10° NNE
ARGOS 3.7 03:08:11 10° NNE 03:13:32 59° ESE 03:18:49 10° S
Cosmos 1408 Rocket 4.3 03:10:03 10° N 03:14:19 57° ENE 03:18:31 10° SSE
USA 267 3.3 03:08:14 10° ENE 03:14:51 79° SSE 03:21:22 10° WSW
METEOR-M 4.2 03:10:50 10° NNE 03:16:12 86° ESE 03:21:32 10° SSW
Gbstr 26 Del rocket 4.2 03:19:26 10° W 03:21:48 16° SW 03:24:13 10° S
NOSS 3-3 (C) 4.4 03:17:53 10° WSW 03:23:18 55° NNW 03:29:59 10° NE
Cosmos 2322 3.7 03:19:02 10° NW 03:24:45 71° WSW 03:30:24 10° SSE
Cosmos 372 Rocket 4.5 03:23:51 10° NW 03:28:35 37° WSW 03:33:15 10° S
NOSS 3 (A) 4.0 03:28:25 10° NW 03:30:37 59° SW 03:33:24 10° SE
ISS -2.1 03:29:39 10° SSW 03:32:29 25° SSE 03:35:20 10° E
IDEFIX/ARIANE 42P 4.5 03:30:33 10° NNW 03:33:34 16° NW 03:36:36 10° W
Envisat 3.9 03:31:49 10° N 03:36:20 33° WNW 03:40:50 10° SW
BREEZE-M DEB (TANK) 3.4 03:32:15 10° SW 03:37:34 31° SSE 03:40:11 10° E
Aureole 1 Rocket 4.4 03:37:00 10° NW 03:40:13 21° WSW 03:43:55 10° SSW
Meteor 2-4 Rocket 3.9 03:35:35 10° SW 03:40:48 50° WNW 03:46:01 10° N
Cosmos 1461 2.7 03:37:39 10° SW 03:41:23 75° SE 03:45:06 10° NE
NOSS 3-4 (A) 4.4 03:36:19 10° WNW 03:42:20 34° WSW 03:49:13 10° S
NOSS 3-4 (C) 4.4 03:36:51 10° WNW 03:42:54 35° WSW 03:49:49 10° S
AQUA 3.8 03:39:06 10° NNE 03:43:49 83° WNW 03:48:30 10° SSW
H-2A R/B 4.1 03:42:15 10° WSW 03:43:55 13° W 03:45:33 10° WNW
Meteor 1-28 Rocket 3.4 03:41:27 10° SSE 03:44:40 64° ENE 03:47:55 10° N
NOSS 0 Rocket 3.9 03:38:53 10° NW 03:45:05 72° WSW 03:51:12 10° SSE
Cosmos 1066 Rocket 4.2 03:40:55 10° SSW 03:46:13 62° WNW 03:51:32 10° N
CZ-3 R/B 4.4 03:51:10 10° WSW 04:07:05 22° SSW 04:14:30 10° SSE
